Location: Dayton
(39.7590°N, 84.1920°W)
Time: 01:05:04
(UTC-05:00)

ATLAS CENTAUR R/B - Visible Passes

Search period start: 08 February 2016 00:00
Search period end: 18 February 2016 00:00
Orbit: 232 x 8486 km, 57.3° (Epoch: 10 January)

Date Brightness Start Highest point End Pass type
(mag) Time Alt. Az. Time Alt. Az. Time Alt. Az.
08 Feb 7.7 02:22:28 10° SSE 03:01:56 46° E 03:48:12 10° NE visible
08 Feb 7.6 05:30:01 10° SW 06:21:37 81° NW 07:08:10 10° NE visible
09 Feb 7.6 02:49:55 10° S 03:31:17 56° ESE 04:20:22 10° NE visible
09 Feb 7.6 06:01:46 10° SW 06:56:17 72° NW 07:39:31 10° NE visible
10 Feb 8.0 00:30:50 10° ESE 00:56:06 18° ENE 01:22:42 10° NE visible
10 Feb 7.5 03:18:07 10° S 04:01:16 68° ESE 04:51:54 10° NE visible
10 Feb 7.6 06:34:13 10° WSW 07:31:36 65° NNW 08:10:37 10° ENE visible
11 Feb 7.8 00:50:21 10° SE 01:22:36 26° E 01:58:39 10° NE visible
11 Feb 7.5 03:46:53 10° SSW 04:31:59 79° ESE 05:22:58 10° NE visible
11 Feb 7.6 07:07:26 10° WSW 08:07:11 60° NNW 08:41:24 10° ENE visible
12 Feb 7.7 01:13:37 10° SE 01:49:30 35° E 02:31:48 10° NE visible
12 Feb 7.5 04:16:07 10° SSW 05:03:30 89° SE 05:53:37 10° NE visible
13 Feb 7.5 01:41:45 15° SSE 02:16:51 45° E 03:03:34 10° NE visible
13 Feb 7.5 04:45:48 10° SW 05:35:51 81° NW 06:23:58 10° NE visible
14 Feb 7.4 02:12:53 25° SSE 02:44:42 55° ESE 03:34:25 10° NE visible
14 Feb 7.5 05:16:44 11° SW 06:08:58 73° NW 06:54:01 10° NE visible
14 Feb 7.9 23:45:41 10° ESE 00:09:05 17° ENE 00:34:07 10° NE visible
15 Feb 7.3 02:43:04 33° S 03:13:08 66° ESE 04:04:39 10° NE visible
15 Feb 7.6 05:46:48 10° WSW 06:42:45 66° NNW 07:23:49 10° ENE visible
16 Feb 7.8 00:08:53 15° ESE 00:34:09 25° E 01:09:09 10° NE visible
16 Feb 7.2 03:12:31 38° S 03:42:15 77° ESE 04:34:24 10° NE visible
16 Feb 7.6 06:18:11 10° WSW 07:16:52 61° NNW 07:53:17 10° ENE visible
17 Feb 7.6 00:37:47 24° ESE 00:59:34 33° E 01:41:11 10° NE visible
17 Feb 7.2 03:41:22 39° SSW 04:12:06 87° ESE 05:03:46 10° NE visible
17 Feb 7.5 06:50:18 10° W 07:50:51 58° NNW 08:22:27 10° ENE visible
